Regional Weather Roundup
Issued by NWS Charleston, SC

Home | Current Version | Previous Version | Text Only | Print | Product List | Glossary On
Versions: 1 2 3 4 5 6 7 8 9 10 11 12 13 14 15 16 17 18 19 20 21 22 23 24 25 26 27 28 29 30 31 32 33 34 35 36 37 38 39 40 41 42 43 44 45 46 47 48 49 50
000
ASUS42 KCHS 240612
RWRCHS

REGIONAL WEATHER ROUNDUP
NATIONAL WEATHER SERVICE CHARLESTON SC
200 AM EDT SUN MAY 24 2015

NOTE: "FAIR" INDICATES FEW OR NO CLOUDS BELOW 12,000 FEET WITH NO
SIGNIFICANT WEATHER AND/OR OBSTRUCTIONS TO VISIBILITY.

NOT ALL STATIONS ARE QUALITY CONTROLLED BY THE NATIONAL
WEATHER SERVICE. USE DATA WITH CAUTION...ESPECIALLY
DEWPOINT OBSERVATIONS.

SCZ027-030-031-034>040-042>050-240700-
...SOUTHEAST SOUTH CAROLINA...

CITY           SKY/WX    TMP DP  RH WIND       PRES   REMARKS
N CHARLESTON   CLEAR     65  59  81 E3        30.33F
6HR MIN TEMP:  64; 6HR MAX TEMP:  74;

WATERFRONT PAR   N/A     74  63  68 E15       30.30F
MOUNT PLEASANT FAIR      72  57  60 E6        30.33F
JOHNS ISLAND   CLEAR     73  61  64 E12       30.33F
PINOPOLIS        N/A     68  63  83 VRB3      30.27F
MONCKS CORNER  FAIR      64  59  82 CALM      30.33F
SUMMERVILLE    FAIR      61  61 100 CALM      30.34F
BEAUFORT MCAS  CLEAR     74  62  66 SE6       30.31F
6HR MIN TEMP:  73; 6HR MAX TEMP:  74;

BEAUFORT ARPT  FAIR      72  61  68 E8        30.31F
HILTON HEAD IS MOCLDY    73  63  68 NE7       30.32F
WALTERBORO     CLEAR     61  59  94 NE6       30.33F
ALLENDALE      FAIR      66  61  82 CALM      30.32F

...SOUTHERN MIDLANDS AND PEE DEE...

CITY           SKY/WX    TMP DP  RH WIND       PRES   REMARKS
GEORGETOWN     NOT AVBL
KINGSTREE      NOT AVBL
ORANGEBURG     CLEAR     63  57  81 CALM      30.34F
6HR MIN TEMP:  62; 6HR MAX TEMP:  76;

BARNWELL       FAIR      66  61  82 E5        30.34F
AIKEN          FAIR      63  54  72 CALM      30.38S
MANNING        FAIR      57  52  82 CALM      30.35S
COLUMBIA       CLEAR     64  54  69 E3        30.34F
6HR MIN TEMP:  64; 6HR MAX TEMP:  78;

SUMTER         CLEAR     63  57  82 CALM      30.34S
FLORENCE       CLEAR     60  55  83 CALM      30.36F
6HR MIN TEMP:  60; 6HR MAX TEMP:  76;

MYRTLE BEACH   CLEAR     73  54  49 SE12      30.37F
N MYRTLE BEACH PTCLDY    73  55  53 SE6       30.35F
6HR MIN TEMP:  72; 6HR MAX TEMP:  74;


$$

GAZ063-065-086>088-099>101-113>116-118-119-134>141-150-240700-
...SOUTHEAST GEORGIA...

CITY           SKY/WX    TMP DP  RH WIND       PRES   REMARKS
SAVANNAH ARPT  PTCLDY    72  61  68 E7        30.30F
6HR MIN TEMP:  69; 6HR MAX TEMP:  74;

HUNTER AAF     NOT AVBL
FORT STEWART   NOT AVBL
STATESBORO     MOCLDY    67  64  90 CALM      30.31F
SYLVANIA       PTCLDY    67  63  87 E7        30.32F
CLAXTON        MOCLDY    64  63  94 CALM      30.30F

...CSRA...CENTRAL AND FAR SOUTHEAST GEORGIA...

CITY           SKY/WX    TMP DP  RH WIND       PRES   REMARKS
THOMSON        CLEAR     68  62  80 SE3       30.37F
AUGUSTA-BUSH   CLEAR     59  56  89 CALM      30.32F
6HR MIN TEMP:  59; 6HR MAX TEMP:  76;

AUGUSTA-DANIEL CLEAR     68  57  68 E5        30.33F
SWAINSBORO     FAIR      68  64  88 E3        30.31F
VIDALIA        CLEAR     68  63  83 E7        30.29F
EASTMAN        FAIR      68  64  88 SE5       30.31F
HAZLEHURST     FAIR      69  64  84 E5        30.28F
ALMA           MOCLDY    68  63  84 NE3       30.27F
6HR MIN TEMP:  68; 6HR MAX TEMP:  77;

WAYCROSS       PTCLDY    69  67  92 E5        30.27F
JESUP          CLOUDY    72  68  88 NE3       30.28F
BAXLEY         MOCLDY    68  64  88 E6        30.28F
BRUNSWICK      CLOUDY    75  64  69 E9        30.28F
SAINT SIMONS   NOT AVBL

$$

SCZ027-028-034-036>038-045-046-048>050-GAZ119-141-240700-
...LAKE AND SUPPLEMENTAL COASTAL OBSERVATIONS...

STATION/POSITION TIME  TEMP    WIND        PRES    WAVE   SWELL
                       AIR SEA DIR/SP/G            HT/PER HT/PER/DIR
                 (UTC) (F)     (DEG/KT/KT) (MB)    (FT/S) (FT/S/D)
UPR LAKE MARION  NOT AVBL
WINYAH BAY       NOT AVBL
LAKE MURRAY      0500   69     100/  3/  8 1027.4R
ACE BASIN NERRS  NOT AVBL
FORT PULASKI     0500   75 78   90/ 18/ 21 1026.9F
SAPELO ISLAND    0500   75      90/  9     1026.0S

$$

ANZ835-935-AMZ111-154-330-350-352-354-370-450-454-472-240700-
...C-MAN AND BUOY OBSERVATIONS...

STATION/POSITION TIME  TEMP    WIND        PRES    WAVE   SWELL
                       AIR SEA DIR/SP/G            HT/PER HT/PER/DIR
                 (UTC) (F)     (DEG/KT/KT) (MB)    (FT/S) (FT/S/D)
BUOY 41004       0550   75 75  100/ 17/ 21 1025.9F   5/ 6
BUOY 41008       0550   75 75  100/ 16/ 19 1025.2F   5/ 5   2/ 90/ 9
FOLLY BEACH CMAN 0600   74     100/ 15/ 17 1026.9F
CAPERS NEARSHORE 0508   74     110/ 16/ 19 1027.5F
FRIPP NEARSHORE  0500   75     120/ 16/ 19 1025.9F


STATION/POSITION TIME  TEMP    WIND        PRES    WAVE   SWELL
                       AIR SEA DIR/SP/G            HT/PER HT/PER/DIR
                 (UTC) (F)     (DEG/KT/KT) (MB)    (FT/S) (FT/S/D)
5E ST. MARYS GA  0521      78                N/A     5/ 6
FRYING PAN BUOY  0550   75 73  120/ 14/ 16 1028.0F   4/ 6   2/110/ 8
BUOY 41025       0550   72 78  120/  8/ 10 1028.5F   3/ 6   3/ 40/ 6
CAPE LOOKOUT NC  0500   71      50/ 10/ 11 1028.6F
BUOY 41002       0550   72 74   80/ 19/ 23 1026.7F   7/ 6
BUOY 41010       0520   78 80   70/ 17/ 19 1023.3F
ST AUGUSTINE FL  0600   76 76   90/ 15/ 16 1024.7F


$$



USA.gov is the U.S. government's official web portal to all federal, state and local government web resources and services.